sat.trackr.live / text

‹ back to catalog

ONEWEB-0640

NORAD 55804 · 2023-029J

PAYLOAD ACTIVE UNKNOWN

§ Identity

Operator
Country
UK
Launch date
2023-03-09
Launch site
AFETR
Launch vehicle
Mass (kg)
RCS (m²)

Purposes: comms

External: N2YO · Heavens-Above · Gunter

§ Orbital elements

Epoch: 2026-05-24T22:59:57.100128Z

Period
109.55 min
Inclination
87.8933°
Eccentricity
0.0002052
Mean motion
13.14501062 rev/d
Perigee alt
1,204.2 km
Apogee alt
1,207.4 km
Semi-major
7,583.9 km
B*
2.3653e-5
RAAN
294.3776°
Arg perigee
77.4191°
Mean anomaly
282.7168°
Rev number
15,636

§ Raw data

ONEWEB-06401 55804U 23029J   26144.95829977  .00000022  00000+0  23653-4 0  99972 55804  87.8933 294.3776 0002052  77.4191 282.7168 13.14501062156366

JSON: /api/v1/satellites/55804 · /tle

For live sub-satellite position, see the globe view (requires WebGL).

§ Visibility from observer

Set your observer location to see the next 7 days of passes ≥ 10°. The values pass through the URL so the page stays shareable.

No JS? Fill the form by hand. The geolocation button needs JavaScript.